QPF
0.00 0.00 0.00 0.00 0.00 0.04 0.03 0.01 0.00 0.00 0.00 0.00 0.00 0.00 0.01 0.01 0.00 0.00 0.00 0.00 0.00 0.01
0.00 0.00 0.00 0.00 0.00 0.05 0.01 0.00 0.01 0.00 0.00 0.00 0.00 0.00 0.00 0.00 0.00 0.00 0.00 0.00 0.00 0.01
0.00 0.00 0.00 0.00 0.00 0.02 0.00 0.00 0.00 0.00 0.00 0.00 0.00 0.01 0.00 0.00 0.00 0.00 0.00 0.00 0.02 0.08
0.00 0.00 0.00 0.00 0.00 0.00 0.00 0.00 0.00 0.00 0.00 0.00 0.00 0.00 0.00 0.00 0.00 0.00 0.03 0.02 0.07 0.16
0.00 0.00 0.00 0.00 0.00 0.00 0.00 0.01 0.02 0.00 0.00 0.00 0.00 0.00 0.00 0.00 0.00 0.00 0.00 0.03 0.12 0.09
0.00 0.00 0.00 0.00 0.00 0.00 0.03 0.04 0.04 0.01 0.00 0.00 0.00 0.00 0.00 0.00 0.00 0.00 0.10 0.10 0.06 0.00
0.00 0.00 0.00 0.00 0.00 0.00 0.02 0.01 0.02 0.00 0.00 0.00 0.00 0.00 0.00 0.00 0.03 0.13 0.08 0.05 0.01 0.00
0.00 0.00 0.00 0.00 0.00 0.00 0.00 0.00 0.00 0.00 0.00 0.00 0.00 0.00 0.01 0.01 0.11 0.07 0.05 0.00 0.00 0.00
0.00 0.00 0.00 0.00 0.00 0.00 0.00 0.00 0.00 0.00 0.00 0.00 0.00 0.00 0.00 0.00 0.01 0.02 0.01 0.00 0.00 0.00
0.00 0.00 0.00 0.00 0.00 0.00 0.00 0.00 0.00 0.00 0.00 0.00 0.00 0.00 0.00 0.00 0.00 0.01 0.00 0.00 0.00 0.00
0.00 0.00 0.00 0.00 0.00 0.00 0.00 0.00 0.00 0.00 0.00 0.00 0.00 0.00 0.00 0.00 0.00 0.01 0.00 0.00 0.00 0.00
0.00 0.00 0.00 0.00 0.00 0.00 0.00 0.00 0.00 0.00 0.00 0.00 0.00 0.00 0.00 0.00 0.00 0.00 0.00 0.00 0.00 0.00
0.00 0.00 0.00 0.00 0.00 0.00 0.00 0.00 0.00 0.00 0.00 0.00 0.01 0.03 0.00 0.01 0.00 0.00 0.00 0.00 0.00 0.00
0.00 0.00 0.00 0.00 0.00 0.00 0.00 0.00 0.00 0.00 0.00 0.00 0.00 0.02 0.00 0.04 0.01 0.00 0.00 0.00 0.00 0.00
MSLP
1013.74 1014.25 1014.67 1015.13 1015.38 1015.73 1016.05 1016.29 1016.52 1016.84 1016.92 1017.10 1017.26 1017.63 1018.01 1018.27 1018.52 1018.79 1018.88 1018.96 1018.96 1018.71
1013.28 1013.85 1014.13 1014.68 1015.24 1015.46 1015.95 1016.18 1016.32 1016.36 1016.69 1016.93 1016.93 1017.22 1017.57 1017.83 1018.11 1018.25 1018.45 1018.48 1018.54 1018.46
1012.66 1013.39 1013.82 1014.26 1014.92 1015.33 1015.82 1016.03 1016.19 1016.33 1016.50 1016.78 1016.92 1017.06 1017.42 1017.56 1017.72 1017.75 1017.91 1018.02 1018.12 1018.12
1011.92 1012.83 1013.37 1013.72 1014.44 1015.04 1015.58 1015.94 1016.18 1016.37 1016.53 1016.65 1016.79 1017.00 1017.22 1017.32 1017.26 1017.36 1017.49 1017.69 1017.66 1017.73
1011.38 1012.21 1012.69 1013.18 1013.92 1014.60 1015.23 1015.71 1016.00 1016.22 1016.42 1016.58 1016.76 1016.98 1017.11 1017.04 1016.95 1017.25 1017.42 1017.37 1017.49 1017.32
1010.70 1011.49 1012.05 1012.64 1013.41 1014.09 1014.85 1015.35 1015.70 1015.96 1016.06 1016.27 1016.60 1016.80 1016.85 1016.85 1017.02 1017.14 1017.10 1017.08 1017.03 1017.36
1009.79 1010.62 1011.43 1012.20 1012.97 1013.61 1014.33 1014.87 1015.32 1015.68 1015.87 1016.11 1016.33 1016.50 1016.69 1016.76 1016.76 1016.61 1016.88 1017.05 1017.29 1017.35
1009.14 1009.96 1011.00 1011.85 1012.48 1013.14 1013.78 1014.30 1014.87 1015.29 1015.52 1015.86 1015.99 1016.19 1016.46 1016.45 1016.34 1016.58 1016.82 1016.98 1017.26 1017.48
1008.87 1009.50 1010.38 1011.35 1011.97 1012.66 1013.27 1013.96 1014.45 1014.82 1015.08 1015.42 1015.50 1015.63 1015.79 1016.08 1016.18 1016.39 1016.62 1016.71 1017.14 1017.45
1008.36 1009.05 1009.68 1010.68 1011.32 1011.99 1012.64 1013.32 1013.92 1014.40 1014.72 1014.88 1015.05 1015.15 1015.45 1015.99 1016.03 1016.17 1016.27 1016.55 1016.91 1017.24
1007.79 1008.42 1009.04 1009.96 1010.44 1011.14 1011.87 1012.54 1013.17 1013.71 1014.17 1014.38 1014.65 1014.95 1015.30 1015.56 1015.75 1015.94 1016.09 1016.30 1016.66 1017.05
1007.09 1007.77 1008.42 1009.13 1009.57 1010.20 1010.97 1011.65 1012.26 1012.87 1013.43 1013.81 1014.09 1014.56 1014.89 1015.28 1015.42 1015.63 1015.82 1016.12 1016.51 1016.93
1006.39 1007.01 1007.60 1008.15 1008.72 1009.46 1010.21 1010.76 1011.38 1012.06 1012.60 1013.13 1013.58 1014.13 1014.61 1015.03 1015.04 1015.22 1015.43 1015.99 1016.41 1016.80
1005.71 1006.15 1006.78 1007.51 1008.20 1008.83 1009.48 1009.93 1010.63 1011.15 1011.84 1012.36 1012.84 1013.46 1013.88 1014.30 1014.28 1014.39 1014.93 1015.20 1015.71 1016.30
Thickness
5785 5781 5776 5773 5772 5769 5767 5765 5763 5761 5761 5760 5760 5761 5761 5763 5762 5760 5761 5761 5764 5766
5787 5781 5779 5776 5773 5771 5769 5767 5766 5764 5762 5760 5763 5764 5764 5765 5765 5765 5764 5765 5765 5765
5790 5783 5781 5778 5773 5770 5767 5767 5766 5766 5765 5764 5764 5765 5765 5766 5767 5767 5768 5769 5768 5767
5793 5786 5782 5779 5775 5771 5767 5766 5764 5763 5761 5762 5763 5765 5766 5767 5770 5770 5771 5771 5771 5769
5796 5788 5784 5780 5776 5773 5767 5765 5763 5761 5759 5759 5760 5762 5764 5767 5771 5769 5768 5770 5771 5771
5797 5790 5785 5782 5778 5775 5769 5766 5764 5763 5761 5761 5761 5763 5766 5769 5770 5770 5771 5770 5771 5770
5804 5796 5788 5785 5780 5777 5772 5768 5765 5763 5762 5762 5764 5766 5767 5769 5771 5773 5772 5771 5771 5770
5811 5802 5793 5786 5783 5779 5775 5771 5768 5766 5766 5765 5766 5768 5768 5770 5772 5773 5771 5771 5769 5768
5811 5804 5796 5788 5785 5780 5776 5772 5769 5768 5768 5768 5772 5773 5772 5773 5773 5773 5770 5770 5767 5766
5813 5806 5800 5793 5789 5783 5778 5774 5770 5769 5769 5771 5774 5775 5773 5772 5774 5771 5771 5770 5767 5765
5816 5809 5805 5798 5794 5789 5784 5777 5773 5771 5772 5774 5776 5774 5774 5774 5774 5770 5771 5770 5767 5766
5822 5815 5809 5803 5800 5797 5789 5783 5779 5778 5776 5776 5779 5776 5775 5775 5775 5771 5770 5769 5767 5766
5829 5821 5815 5812 5808 5803 5797 5792 5789 5785 5784 5783 5782 5777 5776 5776 5776 5771 5771 5767 5766 5764
5835 5829 5824 5818 5814 5808 5803 5800 5795 5792 5790 5788 5786 5780 5778 5779 5781 5778 5772 5771 5769 5767